sat.trackr.live / text

‹ back to catalog

STARLINK-31649

NORAD 59390 · 2024-062S

PAYLOAD ACTIVE UNKNOWN

§ Identity

Operator
Country
US
Launch date
2024-04-02
Launch site
AFWTR
Launch vehicle
Mass (kg)
RCS (m²)

Purposes: comms

External: N2YO · Heavens-Above · Gunter

§ Orbital elements

Epoch: 2026-09-20T21:27:00.806112Z

Period
93.85 min
Inclination
53.1600°
Eccentricity
0.0000897
Mean motion
15.34400123 rev/d
Perigee alt
462.1 km
Apogee alt
463.3 km
Semi-major
6,840.8 km
B*
2.5062e-5
RAAN
65.7240°
Arg perigee
100.2007°
Mean anomaly
259.9097°
Rev number
13,960

§ Raw data

STARLINK-316491 59390U 24062S   26263.89375933  .00000471  00000+0  25062-4 0  99962 59390  53.1600  65.7240 0000897 100.2007 259.9097 15.34400123139604

JSON: /api/v1/satellites/59390 · /tle

For live sub-satellite position, see the globe view (requires WebGL).

§ Visibility from observer

Set your observer location to see the next 7 days of passes ≥ 10°. The values pass through the URL so the page stays shareable.

No JS? Fill the form by hand. The geolocation button needs JavaScript.